This demonstration page uses our WeatherBlox Daily Observations layout. Learn more.

Left ArrowRight Arrow

Hourly Observations for September 14, 2021

Temp ( °F °C ) Dew Point ( °F °C ) Humidity (%) Winds ( mph kmh ) Pressure ( in mb ) Visibility ( mi km ) Precip ( " mm )
12:52 am 00:52 Mostly Clear 71 21.7 66 18.9 84 84 NW 7 11 29.77 1008 10 16 0.00 0.00
1:52 am 01:52 Partly Cloudy 69 20.6 66 18.9 90 90 N 7 11 29.79 1009 10 16 0.00 0.00
2:52 am 02:52 Mostly Clear 68 20 66 18.9 93 93 N 6 9 29.80 1009 10 16 0.00 0.00
3:52 am 03:52 Clear 66 18.9 64 17.8 93 93 N 6 9 29.83 1010 9 14 0.00 0.00
4:52 am 04:52 Clear 66 18.9 64 17.8 93 93 NNW 9 15 29.84 1011 8 13 0.00 0.00
5:28 am 05:28 Mostly Cloudy 67 19.4 64 17.8 91 91 NNW 9 15 29.86 1011 9 14 0.00 0.00
5:52 am 05:52 Cloudy 67 19.4 65 18.3 93 93 NNW 8 13 29.86 1011 9 14 0.00 0.00
6:47 am 06:47 Cloudy 66 19 64 18 94 94 NNW 14 22 29.88 1012 10 16 0.00 0.00
6:52 am 06:52 Cloudy 67 19.4 64 17.8 91 91 NNW 15 24 29.87 1012 10 16 0.00 0.00
7:52 am 07:52 Cloudy with Mist and Fog 67 19.4 64 17.8 91 91 N 8 13 29.91 1013 6 10 0.00 0.00
8:52 am 08:52 Cloudy with Mist and Fog 67 19.4 63 17.2 87 87 NNW 9 15 29.93 1013 6 10 0.00 0.00
9:13 am 09:13 Cloudy 68 20 62 16.7 81 81 N 13 20 29.91 1013 7 11 0.00 0.00
9:52 am 09:52 Mostly Cloudy 68 20 61 16.1 78 78 N 10 17 29.93 1014 10 16 0.00 0.00
10:52 am 10:52 Mostly Cloudy 69 20.6 61 16.1 76 76 NNW 12 19 29.97 1015 10 16 0.00 0.00
11:52 am 11:52 Mostly Cloudy 73 22.8 61 16.1 66 66 NNW 8 13 29.97 1015 10 16 0.00 0.00
12:52 pm 12:52 Mostly Cloudy 76 24.4 61 16.1 60 60 N 6 9 29.96 1015 10 16 0.00 0.00
1:52 pm 13:52 Mostly Cloudy 75 23.9 59 15 58 58 NNW 12 19 29.95 1014 10 16 0.00 0.00
2:52 pm 14:52 Mostly Cloudy 76 24.4 60 15.6 58 58 NNW 15 24 29.96 1015 10 16 0.00 0.00
3:52 pm 15:52 Mostly Cloudy 73 22.8 59 15 62 62 N 9 15 29.95 1014 10 16 0.00 0.00
4:52 pm 16:52 Mostly Cloudy 76 24.4 59 15 56 56 NNE 7 11 29.94 1014 10 16 0.00 0.00
5:52 pm 17:52 Mostly Cloudy 75 23.9 58 14.4 55 55 N 8 13 29.95 1014 10 16 0.00 0.00
6:52 pm 18:52 Partly Cloudy 73 22.8 59 15 62 62 N 5 7 29.96 1014 10 16 0.00 0.00
7:52 pm 19:52 Mostly Clear 70 21.1 61 16.1 73 73 NNE 3 6 29.96 1015 10 16 0.00 0.00
8:52 pm 20:52 Clear 66 18.9 59 15 78 78 Calm 29.97 1015 10 16 0.00 0.00
9:52 pm 21:52 Clear 64 17.8 60 15.6 87 87 Calm 29.99 1016 10 16 0.00 0.00
10:52 pm 22:52 Clear 62 16.7 60 15.6 93 93 N 3 6 30.00 1016 10 16 0.00 0.00
11:52 pm 23:52 Mostly Clear with Patchy Fog 59 15 58 14.4 96 96 N 3 6 30.00 1016 7 11 0.00 0.00

Powered by AerisWeather